Overview Statistics Trail Chart Weather Telemetry Raw packets
 

This is the latest recevied weather packets stored in our database for station/object KJ6HT. If no packets are shown the sender has not sent any weather packets the latest 10 day(s).

<< 24 25 26 27 28 29 30 >>
Time Temp. Humidity Pressure Rain* Wind** Luminosity Snow
1788058815 29.44° C 51% 1007.4 hPa 0 mm - - -
1788057971 30° C 50% 1007.3 hPa 0 mm - - -
1788057023 31.11° C 48% 1007.2 hPa 0 mm - - -
1788056177 31.67° C 45% 1007.2 hPa 0 mm - - -
1788055248 32.22° C 42% 1007.1 hPa 0 mm - - -
1788054319 33.33° C 39% 1007 hPa 0 mm - - -
1788053471 33.89° C 37% 1007.1 hPa 0 mm - - -
1788052535 34.44° C 36% 1007.1 hPa 0 mm - - -
1788051609 35° C 35% 1007.1 hPa 0 mm - - -
1788050762 35° C 35% 1007.1 hPa 0 mm - - -
1788049814 35.56° C 35% 1007.1 hPa 0 mm - - -
1788048965 35.56° C 34% 1007 hPa 0 mm - - -
1788048043 36.11° C 33% 1006.8 hPa 0 mm - - -
1788047121 36.67° C 33% 1006.9 hPa 0 mm - - -
1788046262 36.11° C 33% 1007 hPa 0 mm - - -
1788045313 36.11° C 34% 1007 hPa 0 mm - - -
1788044471 36.11° C 35% 1007.1 hPa 0 mm - - -
1788043529 36.67° C 35% 1007.2 hPa 0 mm - - -
1788042671 36.67° C 35% 1007.5 hPa 0 mm - - -
1788041724 36.67° C 34% 1007.8 hPa 0 mm - - -
1788040876 37.22° C 34% 1008 hPa 0 mm - - -
1788039955 37.22° C 35% 1008.1 hPa 0 mm - - -
1788039009 37.22° C 35% 1008.1 hPa 0 mm - - -
1788038161 37.22° C 35% 1008.2 hPa 0 mm - - -
1788037220 37.22° C 35% 1008.3 hPa 0 mm - - -

* Rain latest hour (hover to see other rain measurements)
** Current wind speed in m/s (hover to see current wind gust speed)